BENVENUTI AL 154° GRUPPO VIRTUALE

Displaying items by tag: DCS BASICO

Thursday, 03 October 2019 10:24

Primi test MB339A su piattaforma DCS

Mercoledì 4 Settembere alcuni membri del gruppo hanno effettuato i primi test del nuovo velivolo per DCS MB339A, sviluppato da "Frecce Tricolori Virtuali http://www.freccetricolorivirtuali.net/". La sessione di volo, svolta all'interno dello scenario standard del Caucaso, ha visto il decollo di due velivoli dalla base di Kutaisi per recarsi presso il vicino poligono Air-to-ground, al fine di poter testare la qualità di volo, la strumentazione e l'armamento in dotazione. La missione ha dato un esito molto positivo, in quanto il velivolo si è dimostrato estremamente efficente e adatto allo scopo addestrativo basico per il piloti del gruppo che si dovranno introdurre sulla piattaforma DCS, in vista di intraprendere un addestramento con moduli più complessi per affrontare la famosa esercitazione online Red Flag, insieme ad altri gruppi e piloti
Published in Blog
Tagged under

METAR & TAF

[Source: ADDS]
METAR
LIPL 250955Z 26004KT 8000 NSC 14/11 Q1015 RMK SKC VIS MIN 8000 WIND THR31 25005KT WIND THR13 25003KT BLU =
AMD LIPL 250800Z 2509/2518 VRB03KT 8000 NSC
TAF
AMD LIPL 250800Z 2509/2518 VRB03KT 8000 NSC =

Notice: Undefined index: sun in /web/htdocs/www.154gruppovirtuale.it/home/modules/mod_wx/tmpl/default.php on line 13

Link utili

 
 
 

Network

Simulation Platform